Tijuana, Mexico

10:07 AM PDT on September 23, 2017 (GMT -0700)
Gen Abelardo L Rodriguez International

Weather History for MMTJ - November, 2012

Change the Weather History Date:

Friday, November 2, 2012

  Actual Average Record
Temperature  
Mean Temperature 62 °F -  
Max Temperature 68 °F 71 °F 95 °F (1997)
Min Temperature 55 °F 52 °F 46 °F (1996)
Degree Days  
Heating Degree Days 4    
Growing Degree Days 12 (Base 50)    
Moisture  
Dew Point 50 °F    
Average Humidity 67    
Maximum Humidity 82    
Minimum Humidity 46    
Precipitation  
Precipitation 0.00 in - - ()
Sea Level Pressure  
Sea Level Pressure 30.00 in    
Wind  
Wind Speed 3 mph ()    
Max Wind Speed 12 mph    
Max Gust Speed -    
Visibility 6.4 miles    
Events      
Averages and records for this station are not official NWS values.
T = Trace of Precipitation, MM = Missing Value Source: Averaged Metar Reports

Daily Weather History Graph

Daily Weather History Graph

Search for Another Location

Airport or City:

Trip Planner

Search our weather history database for the weather conditions in past years. The results will help you decide how hot, cold, wet, or windy it might be!

Date:

Astronomy

Nov. 02, 2012 Rise Set
Actual Time 7:06 AM PDT 5:55 PM PDT
Civil Twilight 6:41 AM PDT 6:21 PM PDT
Nautical Twilight 6:11 AM PDT 6:50 PM PDT
Astronomical Twilight 5:43 AM PDT 7:19 PM PDT
Moon 8:53 PM PDT (11/2) 10:23 AM PDT (11/2)
Length of Visible Light 11h 40m
Length of Day
10h 49m
Waning Gibbous, 86% of the Moon is Illuminated
Nov 2
Waning Gibbous
Nov 6
Last Quarter
Nov 13
New
Nov 20
First Quarter
Nov 28
Full

Hourly Weather History & Observations

Time (PDT) Temp. Dew Point Humidity Pressure Visibility Wind Dir Wind Speed Gust Speed Precip Events Conditions
12:41 AM 59.0 °F 51.8 °F 77% 30.02 in 6.0 mi Calm Calm - N/A   Overcast
2:41 AM 59.0 °F 50.0 °F 72% 30.02 in 6.0 mi Calm Calm - N/A   Overcast
3:42 AM 59.0 °F 50.0 °F 72% 30.01 in 6.0 mi Calm Calm - N/A   Overcast
4:46 AM 59.0 °F 50.0 °F 72% 30.02 in 6.0 mi Calm Calm - N/A   Overcast
5:42 AM 59.0 °F 48.2 °F 67% 30.00 in 7.0 mi Calm Calm - N/A   Overcast
6:46 AM 59.0 °F 48.2 °F 67% 30.01 in 7.0 mi Calm Calm - N/A   Overcast
7:49 AM 59.0 °F 48.2 °F 67% 30.04 in 7.0 mi NNW 3.5 mph - N/A   Overcast
8:48 AM 60.8 °F 48.2 °F 63% 30.03 in 7.0 mi ENE 2.3 mph - N/A   Mostly Cloudy
9:47 AM 62.6 °F 48.2 °F 59% 30.03 in 7.0 mi North 3.5 mph - N/A   Partly Cloudy
10:50 AM 64.4 °F 48.2 °F 56% 30.01 in 7.0 mi SE 4.6 mph - N/A   Clear
11:52 AM 68.0 °F 46.4 °F 46% 30.01 in 7.0 mi NW 6.9 mph - N/A   Clear
12:49 PM 68.0 °F 48.2 °F 49% 29.98 in 7.0 mi NW 9.2 mph - N/A   Clear
1:46 PM 68.0 °F 50.0 °F 52% 29.95 in 7.0 mi West 10.4 mph - N/A   Clear
2:47 PM 66.2 °F 50.0 °F 56% 29.96 in 7.0 mi WNW 11.5 mph - N/A   Clear
3:49 PM 66.2 °F 50.0 °F 56% 29.95 in 7.0 mi West 8.1 mph - N/A   Clear
4:52 PM 64.4 °F 50.0 °F 59% 29.98 in 7.0 mi WNW 9.2 mph - N/A   Clear
5:47 PM 62.6 °F 51.8 °F 68% 29.98 in 7.0 mi West 6.9 mph - N/A   Clear
6:47 PM 59.0 °F 51.8 °F 77% 29.99 in 6.0 mi West 6.9 mph - N/A   Clear
7:44 PM 57.2 °F 51.8 °F 82% 29.98 in 6.0 mi West 6.9 mph - N/A   Clear
8:44 PM 57.2 °F 51.8 °F 82% 30.01 in 6.0 mi Calm Calm - N/A   Clear
9:47 PM 57.2 °F 51.8 °F 82% 30.01 in 5.0 mi Calm Calm - N/A   Clear
10:43 PM 55.4 °F 50.0 °F 82% 30.02 in 5.0 mi Calm Calm - N/A   Clear
11:44 PM 55.4 °F 50.0 °F 82% 30.00 in 5.0 mi Calm Calm - N/A   Clear